Regional Weather Roundup
Issued by NWS Raleigh/Durham, NC

Home | Current Version | Previous Version | Text Only | Print | Product List | Glossary On
Versions: 1 2 3 4 5 6 7 8 9 10 11 12 13 14 15 16 17 18 19 20 21 22 23 24 25 26 27 28 29 30 31 32 33 34 35 36 37 38 39 40 41 42 43 44 45 46 47 48 49 50
000
ASUS42 KRAH 161310
RWRRAH
NORTH CAROLINA WEATHER ROUNDUP
NATIONAL WEATHER SERVICE RALEIGH NC
800 AM EST SAT DEC 16 2017

NOTE: "FAIR" INDICATES FEW OR NO CLOUDS BELOW 12,000 FEET WITH NO
SIGNIFICANT WEATHER AND/OR OBSTRUCTIONS TO VISIBILITY.

NCZ001-053-055-056-065-067-161400-
WESTERN NORTH CAROLINA

CITY           SKY/WX    TMP DP  RH WIND       PRES   REMARKS
ASHEVILLE      CLOUDY    30  19  63 N10       30.20R WCI  21
JEFFERSON      CLOUDY    25  18  74 W8        30.12R WCI  16
MORGANTON      CLOUDY    22  20  93 CALM      30.24R
HICKORY        CLOUDY    25  21  85 CALM      30.22R
RUTHERFORDTON  NOT AVBL
MOUNT AIRY     CLOUDY    32  20  61 W3        30.22R
BOONE          CLOUDY    25  18  73 NW7       30.14R WCI  17
$$

NCZ021-022-025-041-071-084-088-161400-
CENTRAL NORTH CAROLINA

CITY           SKY/WX    TMP DP  RH WIND       PRES   REMARKS
CHARLOTTE      CLOUDY    28  26  92 CALM      30.25R
GREENSBORO     PTCLDY    27  20  75 W5        30.22R WCI  22
WINSTON-SALEM  CLOUDY    28  18  66 CALM      30.24R
RALEIGH-DURHAM PTCLDY    25  20  81 CALM      30.25R
FORT BRAGG     CLOUDY    27  25  92 CALM      30.26R
FAYETTEVILLE   CLOUDY    28  25  88 SW3       30.27R
BURLINGTON     CLEAR     28  21  75 CALM      30.23R
LAURINBURG     CLOUDY    27  25  92 CALM      30.29R FOG
$$

NCZ011-015-027-028-043-044-047-080-103-161400-
NORTHEASTERN NORTH CAROLINA

CITY           SKY/WX    TMP DP  RH WIND       PRES   REMARKS
ROCKY MT-WILSO CLEAR     26  22  84 S3        30.25R
GREENVILLE     CLEAR     28  27  93 CALM      30.26R
WASHINGTON     CLEAR     31  22  72 CALM      30.26R
ELIZABETH CITY CLEAR     28  25  88 NW5       30.25R WCI  23
MANTEO         CLEAR     36  25  65 N6        30.24R WCI  31
CAPE HATTERAS  CLEAR     39  28  64 VRB6      30.23R WCI  35
$$

NCZ078-087-090-091-093-098-101-161400-
SOUTHEASTERN NORTH CAROLINA

CITY           SKY/WX    TMP DP  RH WIND       PRES   REMARKS
LUMBERTON      CLOUDY    28  26  92 CALM      30.28R
GOLDSBORO      CLOUDY    29  24  81 CALM      30.25R
KINSTON        CLOUDY    27  25  93 SW3       30.27R
KENANSVILLE    CLOUDY    25  23  93 CALM      30.27R FOG
NEW BERN       CLEAR     29  26  89 SW3       30.28R
CHERRY POINT   CLEAR     30  26  85 W3        30.28R
BEAUFORT       CLEAR     36  26  67 N8        30.27R WCI  30
JACKSONVILLE   CLOUDY    31  27  85 W3        30.28R
WILMINGTON     MOCLDY    31  29  92 CALM      30.29R
$$




USA.gov is the U.S. government's official web portal to all federal, state and local government web resources and services.